Lid_Strength_Index
1 1 2 2 1 2 2 2 2 2 2 2 2 2 2 2 2 2 2 2 2 2 2 2 2 1 2 3 3 -0 -2 -1 -0 1 2 3 4 4 6 5 5 6 5 5 4 5 5
2 2 2 2 2 2 2 2 2 2 2 2 2 2 2 2 2 2 2 2 3 3 2 1 1 1 3 5 1 -0 -0 0 1 1 2 2 3 3 4 5 5 5 6 6 5 6 6
2 2 3 2 2 2 2 2 2 2 2 2 2 2 2 2 2 3 3 3 3 3 1 -0 1 1 3 4 -0 -0 -0 0 0 1 2 2 2 4 3 5 4 4 9 8 6 6 7
2 2 3 3 3 3 2 2 2 2 2 2 2 2 2 3 3 3 3 3 3 2 -0 -0 1 1 4 1 0 0 -0 1 0 0 1 1 1 3 4 3 5 7 7 10 6 6 6
2 2 1 2 2 2 3 3 3 3 3 3 3 3 3 3 3 4 4 3 3 1 -1 0 1 2 4 2 3 0 0 2 1 1 1 1 2 4 4 6 9 9 11 9 8 5 7
1 1 1 2 2 2 3 3 3 3 3 3 3 4 4 4 4 4 4 4 1 1 0 -0 1 3 2 4 3 1 0 1 2 2 3 3 4 5 5 7 12 12 10 7 8 6 6
2 2 2 3 3 3 3 3 3 3 3 4 4 4 4 4 4 4 4 1 3 4 2 4 3 4 3 3 2 3 1 2 2 3 5 4 6 7 6 6 7 8 7 8 7 6 7
3 3 4 4 4 4 4 3 3 3 3 4 4 4 4 4 4 4 4 3 2 2 5 3 2 2 2 2 4 3 2 4 4 6 5 6 7 5 5 5 6 6 7 8 6 5 6
3 3 4 4 4 4 4 4 3 3 3 4 3 4 4 5 5 3 2 2 1 1 5 4 3 3 3 2 4 4 3 4 5 6 6 7 6 5 5 6 7 7 7 7 8 6 6
3 3 4 4 4 4 4 4 3 3 3 3 3 3 4 5 4 1 2 1 1 1 7 6 5 4 3 3 5 3 2 4 5 6 6 6 5 5 6 7 6 8 6 6 7 8 10
2 2 3 3 3 3 3 3 3 3 3 3 3 4 4 5 3 2 1 1 1 2 13 5 5 2 3 5 4 4 2 4 6 6 6 7 6 6 7 6 5 7 5 6 7 8 8
2 2 2 2 2 2 3 3 3 3 3 3 3 4 5 2 2 1 0 1 2 8 11 7 5 5 5 5 5 4 4 3 4 6 5 6 4 5 6 5 5 5 6 6 7 8 13
3 3 3 3 3 3 3 3 3 3 4 4 4 5 5 2 2 -1 0 2 8 10 6 7 6 5 5 6 6 5 6 6 7 8 8 6 6 5 5 6 5 6 7 11 12 12 16
3 3 3 3 3 3 3 3 3 3 3 4 5 5 3 1 -0 0 1 5 11 8 7 5 6 6 7 6 6 6 6 7 6 7 8 9 9 7 5 6 7 7 7 10 14 13 13
3 3 3 3 3 3 3 4 4 4 4 5 6 0 1 -0 -1 -0 4 9 8 7 6 6 6 7 7 6 6 6 6 7 6 6 8 8 9 5 5 5 5 7 8 6 9 9 10
3 3 3 3 3 4 4 4 4 4 5 5 3 2 1 -0 -1 1 5 9 6 5 6 5 8 7 8 7 7 7 7 5 6 5 5 6 9 6 6 5 5 6 6 9 8 12 13
3 3 3 3 4 4 4 4 4 5 5 6 3 4 1 -1 0 3 7 6 6 4 4 6 7 7 7 7 7 7 7 6 5 5 5 6 7 7 6 7 7 7 8 7 8 9 12
3 3 3 4 3 3 3 4 4 5 6 5 2 6 1 0 5 5 6 5 7 5 4 5 5 6 6 6 7 7 7 6 4 5 6 5 7 9 8 5 5 6 7 7 10 10 9
3 3 3 3 3 3 4 4 5 5 5 3 4 3 1 2 8 7 5 5 5 5 5 5 6 5 5 6 8 6 6 4 4 5 6 5 7 10 9 7 6 7 7 6 7 7 9
3 3 3 3 3 4 4 4 4 5 5 3 4 6 4 3 3 6 6 6 6 4 5 5 5 5 6 6 6 7 6 5 4 4 3 4 7 8 10 8 7 8 7 7 7 9 9
3 3 3 3 3 3 4 4 4 5 5 4 3 5 4 7 6 5 5 6 7 7 5 5 6 6 6 8 7 7 6 5 5 6 4 5 8 7 7 7 7 7 7 7 8 7 9
3 3 3 3 3 3 3 4 4 5 5 2 5 5 4 5 4 5 7 6 7 6 6 7 7 6 6 7 7 8 7 6 7 5 5 5 8 7 8 7 8 8 7 7 7 7 7
3 3 3 3 3 3 4 4 4 5 4 2 2 2 4 6 5 6 6 7 7 6 5 5 5 6 7 6 5 5 5 5 5 6 6 7 8 9 10 8 9 10 8 7 8 6 7
3 3 3 4 4 4 4 4 4 4 5 2 1 2 5 7 5 6 5 5 6 5 6 5 5 6 5 3 3 4 4 4 5 5 5 6 7 8 10 10 14 8 6 6 8 6 5
3 3 3 4 4 4 4 4 4 4 4 2 0 2 4 7 5 5 6 5 5 5 5 5 4 3 2 4 7 8 8 7 6 5 5 5 8 11 12 12 11 8 7 8 9 10 5
3 3 3 4 4 4 4 4 4 4 4 2 0 0 3 6 6 4 5 5 6 6 6 5 3 2 3 5 7 11 12 9 9 8 6 6 7 9 11 14 16 11 7 5 6 11 7
3 3 3 4 4 4 4 4 4 4 4 4 1 1 2 5 3 4 6 6 4 5 6 5 5 5 3 7 9 10 10 7 11 11 11 10 9 13 12 13 10 8 6 5 12 11 6
3 4 4 4 4 4 4 4 4 4 4 3 2 1 3 4 3 3 3 4 4 5 7 5 6 5 6 8 8 8 9 9 10 9 11 12 12 11 11 13 14 6 6 9 8 6 5
3 3 4 4 4 5 5 5 5 4 4 4 2 1 1 4 4 2 2 2 2 2 4 4 5 5 5 8 7 8 10 9 11 12 9 13 12 13 11 12 7 6 7 5 6 6 5